sat.trackr.live / text

‹ back to catalog

STARLINK-3877

NORAD 52355 · 2022-045AA

PAYLOAD ACTIVE UNKNOWN

§ Identity

Operator
Country
US
Launch date
2022-04-29
Launch site
AFETR
Launch vehicle
Mass (kg)
RCS (m²)

Purposes: comms

External: N2YO · Heavens-Above · Gunter

§ Orbital elements

Epoch: 2026-05-24T14:24:03.963168Z

Period
95.44 min
Inclination
53.2152°
Eccentricity
0.0000987
Mean motion
15.08838372 rev/d
Perigee alt
539.1 km
Apogee alt
540.4 km
Semi-major
6,917.9 km
B*
2.6494e-5
RAAN
218.3474°
Arg perigee
87.0855°
Mean anomaly
273.0250°
Rev number
22,724

§ Raw data

STARLINK-38771 52355U 22045AA  26144.60004587  .00000134  00000+0  26494-4 0  99962 52355  53.2152 218.3474 0000987  87.0855 273.0250 15.08838372227247

JSON: /api/v1/satellites/52355 · /tle

For live sub-satellite position, see the globe view (requires WebGL).

§ Visibility from observer

Set your observer location to see the next 7 days of passes ≥ 10°. The values pass through the URL so the page stays shareable.

No JS? Fill the form by hand. The geolocation button needs JavaScript.